Terminal Aerodrome Forecast
Issued by NWS

Home | Current Version | Previous Version | Text Only | Print | Product List | Glossary On
Versions: 1 2 3 4 5 6 7 8 9 10 11 12 13 14 15 16 17 18 19 20
000
FTUS43 KSGF 052300
TAFBBG
TAF
KBBG 052336Z 0600/0624 14005KT P6SM VCSH SCT030 BKN140
     FM060200 15006KT P6SM SCT040 SCT120
     FM060600 VRB03KT 4SM BR SKC WS017/22035KT
     FM061500 20013KT P6SM BKN050=

USA.gov is the U.S. government's official web portal to all federal, state and local government web resources and services.